SCP
0 -0 0 0 0 0 0 0 0 0 0 0 0 0 0 0 0 0 0 0 0 0 0 0 0 0 -0 -0 -0 -0 -0 -0 -0 0 0 0 0 0 0 0 0 0 0 0
0 0 0 0 0 -0 0 0 0 0 -0 0 0 0 0 0 0 0 0 0 0 0 0 0 0 0 -0 -0 -0 0 -0 0 -0 -0 -0 -0 0 0 0 0 0 0 0 0
0 -0 -0 -0 0 -0 0 0 -0 0 0 0 0 0 0 0 0 0 0 0 0 0 0 0 0 0 0 -0 -0 -0 -0 -0 -0 -0 -0 0 0 0 0 0 0 0 0 0
0 0 0 0 0 0 0 0 -0 -0 0 0 0 0 0 0 0 0 0 0 0 0 0 0 0 0 0 0 0 -0 -0 -0 -0 -0 -0 -0 -0 0 0 0 -0 -0 -0 0
0 0 0 0 0 0 0 0 -0 -0 -0 0 -0 -0 0 0 0 0 0 0 0 0 0 0 0 0 0 0 0 0 0 0 -0 -0 -0 -0 -0 -0 -0 0 -0 -0 0 -0
0 0 -0 0 0 0 0 0 0 -0 0 0 0 0 0 0 0 0 0 0 0 0 0 0 0 0 0 0 0 0 0 -0 0 0 0 0 -0 -0 -0 0 -0 -0 0 0
0 0 0 0 0 0 0 0 0 0 0 0 0 0 0 0 0 0 0 0 0 0 0 0 0 0 0 0 0 0 0 0 0 -0 -0 0 -0 -0 -0 -0 -0 -0 -0 -0
0 0 0 0 0 0 0 0 0 0 0 0 0 0 0 0 0 0 0 0 0 0 0 0 0 0 0 0 0 0 0 0 0 0 0 0 0 0 0 0 0 0 0 0
0 0 0 0 0 0 0 0 0 0 0 0 0 0 0 0 0 0 0 0 0 0 0 0 0 0 0 0 -0 0 0 0 0 0 0 0 0 0 0 0 0 0 -0 -0
0 0 0 0 -0 0 0 0 0 0 0 0 0 0 0 0 0 0 0 0 0 0 0 0 0 0 0 0 -0 -0 -0 -0 -0 -0 -0 0 0 0 0 0 0 0 0 -0
0 0 0 0 0 0 -0 0 0 0 0 0 0 0 0 0 0 0 0 0 0 0 0 0 0 0 0 0 0 0 0 0 0 0 0 0 0 0 0 -0 0 0 -0 -0
0 0 0 0 0 0 0 0 0 0 0 0 0 0 0 0 0 0 0 0 0 0 0 0 0 0 0 0 0 0 0 0 0 0 0 0 0 -0 -0 0 -0 -0 0 0
0 0 0 0 0 0 0 0 0 0 0 0 0 0 0 0 0 0 0 0 0 0 0 0 0 0 0 0 0 0 0 0 0 0 0 0 0 0 0 0 0 0 -0 -0
0 0 0 0 0 0 0 0 0 0 0 0 0 0 0 0 0 0 0 0 0 0 0 0 0 0 0 0 0 0 0 0 0 0 0 0 0 0 0 0 0 0 0 0
0 0 0 0 0 0 0 0 0 0 0 0 0 0 0 0 0 0 0 0 0 0 0 0 0 0 0 0 0 0 0 0 0 0 0 0 0 0 0 0 0 0 0 0
0 0 0 0 0 0 0 0 0 0 0 0 0 0 0 0 0 0 0 0 0 0 0 0 0 0 0 0 0 0 0 0 0 0 0 0 0 0 0 0 0 0 0 0
0 0 0 0 0 0 0 0 0 0 0 0 0 0 0 0 0 0 0 0 0 0 0 0 0 0 0 0 0 0 0 0 0 0 0 0 0 0 0 0 0 0 0 0
0 0 0 0 0 0 0 0 0 0 0 0 0 0 0 0 0 0 0 0 0 0 0 0 0 0 0 0 0 0 0 0 0 0 0 0 0 0 0 0 0 0 0 0
0 0 0 0 0 0 0 0 0 0 0 0 0 0 0 0 0 0 0 0 0 0 0 0 0 0 0 0 0 0 0 0 0 0 0 0 0 0 0 0 0 0 0 0
0 0 0 0 0 0 0 0 0 0 0 0 0 0 0 0 0 0 0 0 0 0 0 0 0 0 0 0 0 0 0 0 0 0 0 0 0 0 0 0 0 0 0 0
0 -0 0 0 0 0 0 0 0 0 0 0 0 0 0 0 0 0 0 0 0 0 0 0 0 0 0 0 0 0 0 0 0 0 0 0 0 0 0 0 0 0 0 0
0 0 0 0 0 0 0 0 0 0 0 0 0 0 0 0 0 0 0 0 0 0 0 0 0 0 0 0 0 0 0 0 0 0 0 0 0 0 0 0 0 0 0 0
0 0 0 0 0 0 0 0 0 0 0 0 0 0 0 0 0 0 0 0 0 0 0 0 0 0 0 0 0 0 0 0 0 0 0 0 0 0 0 0 0 0 0 0
0 0 0 0 0 0 0 0 0 0 0 0 0 0 0 0 0 0 0 0 0 0 0 0 0 0 0 0 0 0 0 0 0 0 0 0 0 0 0 0 0 0 0 0
0 0 0 0 0 0 0 0 0 0 0 0 0 0 0 0 0 0 0 0 0 0 0 0 0 0 0 0 0 0 0 0 0 0 0 0 0 0 0 0 0 0 0 0
0 0 0 0 0 0 0 0 0 0 0 0 0 0 0 0 0 0 0 0 0 0 0 0 0 0 0 0 0 0 0 0 0 0 0 0 0 0 0 0 0 0 0 0
0 0 0 0 0 0 0 0 0 0 0 0 0 0 0 0 0 0 0 0 0 0 0 0 0 0 0 0 0 0 0 0 0 0 0 0 0 0 0 0 0 0 0 0
Wind_Speed_500mb
8 3 5 7 9 17 18 11 12 8 13 22 20 15 35 24 20 16 13 19 17 17 17 15 15 14 12 12 14 17 18 15 14 13 13 10 10 10 12 15 19 21 20 16
9 6 2 12 21 21 16 10 21 21 41 31 32 17 16 15 20 20 12 14 14 13 14 12 12 12 11 10 10 11 11 9 11 13 14 13 10 13 14 14 13 16 16 16
10 3 11 14 15 26 10 10 20 13 24 9 7 17 19 13 18 21 16 13 14 13 12 9 8 7 8 9 10 10 8 1 8 10 13 13 14 14 9 13 14 15 16 15
7 9 6 10 9 12 15 11 32 21 19 19 17 19 32 35 33 34 27 19 14 11 11 9 4 5 6 9 11 12 9 6 8 8 8 7 10 9 9 12 14 12 11 9
3 6 14 3 10 17 15 16 40 44 41 32 35 29 40 15 18 16 25 19 15 10 10 9 5 2 4 7 10 10 8 8 7 6 5 4 7 4 2 6 9 12 10 8
5 6 11 9 6 18 12 10 19 49 31 21 12 1 9 5 3 3 9 19 17 13 10 9 7 4 1 3 7 7 3 4 5 5 5 9 12 12 11 12 9 7 9 9
5 6 18 14 23 24 10 12 17 36 30 27 14 25 2 5 6 5 4 8 17 17 10 10 8 8 5 3 1 3 0 2 1 2 5 7 11 12 12 12 11 8 9 11
7 3 18 33 19 17 8 9 16 23 28 33 30 23 20 16 15 13 12 10 8 14 17 16 13 11 10 8 8 5 3 5 6 3 4 5 8 10 10 13 13 14 17 16
22 16 4 72 11 41 14 17 19 19 16 18 20 25 28 29 25 23 22 20 19 15 14 22 22 18 15 14 14 13 10 6 7 8 7 4 6 9 11 10 12 15 16 17
4 16 42 38 65 27 38 26 18 17 14 20 24 27 36 34 29 30 28 28 25 27 28 26 22 25 20 26 22 21 18 16 13 12 11 10 9 9 11 13 15 18 18 19
12 22 20 40 58 59 59 54 39 37 35 35 40 41 48 51 45 38 34 33 35 37 35 33 35 31 28 31 31 28 27 27 24 20 17 16 16 17 16 18 19 20 21 21
16 29 26 17 25 34 52 51 43 51 49 36 40 43 46 52 42 40 41 41 45 48 47 42 40 42 38 39 38 36 38 36 32 30 27 24 23 24 25 25 25 25 25 24
20 22 30 23 19 18 19 24 24 29 25 31 33 37 44 53 48 45 45 44 50 53 57 55 50 48 46 49 50 48 44 42 41 40 39 36 33 31 31 30 32 32 32 31
69 48 32 43 29 22 30 28 24 35 37 40 32 36 41 45 50 53 57 52 49 49 53 55 58 60 51 56 63 60 56 51 50 49 48 46 44 41 39 40 40 39 38 38
90 74 64 58 51 56 49 43 41 46 49 55 46 45 54 59 58 60 58 51 55 60 61 59 63 65 59 65 71 73 70 65 61 59 57 55 53 52 52 51 50 48 50 53
69 78 72 70 59 52 59 58 63 62 55 49 49 45 49 56 66 72 68 65 63 68 67 68 70 61 54 61 68 75 78 77 71 68 67 66 66 66 64 64 63 62 61 57
65 71 69 82 84 81 77 67 65 63 60 57 55 56 57 63 71 75 74 69 69 65 61 66 69 62 61 59 60 67 77 77 79 80 77 74 76 76 75 75 72 71 68 64
87 82 81 85 83 70 67 66 65 62 58 59 60 62 70 72 72 67 61 58 64 66 61 56 58 63 65 66 64 61 68 78 82 85 84 86 85 83 84 82 80 79 74 72
85 85 87 88 91 86 76 77 73 64 66 68 64 68 66 67 63 55 50 54 55 55 43 45 54 58 59 57 60 65 68 69 73 77 83 86 87 88 90 90 88 86 83 81
92 95 99 96 91 85 86 80 74 70 61 56 57 57 56 49 45 47 47 48 47 43 40 40 47 54 60 63 66 69 68 68 72 75 74 78 80 73 81 90 93 94 92 90
75 80 88 88 88 83 75 69 59 53 51 50 50 48 47 46 45 47 49 48 37 43 44 43 47 48 48 53 57 65 66 64 60 64 71 78 79 80 80 85 88 89 88 88
34 44 53 57 59 59 53 44 44 45 45 47 45 48 51 47 46 45 44 44 37 44 42 39 39 39 38 41 47 53 59 61 58 56 56 61 67 73 75 77 83 80 75 76
27 28 27 26 34 40 42 40 42 44 43 42 45 47 43 43 44 41 37 35 29 30 30 34 35 35 34 35 38 40 45 48 53 57 58 59 62 65 66 65 62 63 67 72
26 23 23 21 25 31 34 37 41 43 43 42 40 40 40 39 37 34 30 29 29 29 31 33 34 35 34 33 34 37 40 42 44 46 48 50 53 56 59 59 59 60 60 59
29 23 18 17 20 25 28 32 34 36 35 36 36 33 33 31 29 28 27 27 28 29 29 29 27 26 25 26 27 28 29 32 35 39 42 45 47 49 50 50 50 50 50 49
26 25 21 18 17 20 23 24 29 30 29 30 30 30 30 29 29 28 27 25 23 22 22 24 22 23 22 22 24 25 26 29 31 34 37 40 42 42 42 41 40 40 38 35
21 23 22 20 21 23 23 23 22 24 26 26 25 28 28 24 24 23 23 23 21 16 15 15 14 16 17 18 20 21 23 25 26 27 28 30 31 33 35 37 36 34 34 35
Wind_Direction_500mb
263 281 287 240 188 171 186 208 182 265 229 273 278 268 299 308 302 291 266 255 247 260 274 300 317 326 341 357 9 13 13 15 17 32 45 65 82 106 130 150 159 172 182 194
293 353 264 261 225 197 194 222 273 275 283 262 278 269 262 284 283 279 268 269 254 255 262 283 307 329 343 341 4 10 14 16 32 51 59 59 91 102 127 141 145 154 172 168
272 326 307 298 220 191 167 191 201 193 226 247 266 251 268 268 274 277 265 248 258 259 258 272 304 334 351 358 24 34 29 41 52 82 67 63 75 90 128 138 145 156 162 182
258 351 344 235 149 198 186 220 216 265 248 230 246 278 282 273 268 274 270 252 240 251 249 256 288 339 2 19 35 40 54 113 117 96 82 58 73 92 113 132 149 159 159 173
151 213 294 195 188 160 163 272 207 223 249 256 272 293 297 264 248 270 255 244 229 229 240 250 261 298 12 38 48 52 85 97 85 81 82 113 162 174 126 142 136 132 142 129
88 167 220 243 168 179 152 297 188 192 230 230 222 244 257 177 224 224 218 230 226 226 227 231 263 270 297 37 69 78 65 89 64 62 91 121 128 139 127 133 133 142 175 147
165 245 285 236 155 155 91 238 178 190 200 183 193 231 193 205 235 244 200 207 230 235 228 224 236 263 261 259 57 96 44 298 308 101 122 121 119 121 138 128 115 134 165 154
95 115 274 158 126 175 207 156 172 187 198 203 226 255 252 252 245 253 248 226 233 244 242 238 236 234 246 245 237 229 238 285 293 267 165 139 132 136 141 141 154 164 169 171
192 209 232 180 196 202 191 178 179 196 208 227 242 259 267 262 253 252 253 250 243 244 242 250 249 241 239 232 245 242 237 251 276 273 263 214 173 160 157 169 180 178 178 176
98 234 232 216 220 211 215 192 188 199 224 244 260 273 276 272 264 256 256 258 256 249 250 245 250 251 234 235 237 241 242 240 242 258 260 254 240 211 190 187 198 191 183 183
261 272 263 251 232 232 232 234 238 242 250 266 272 276 277 274 265 265 265 261 258 258 254 254 250 245 243 246 245 241 239 240 240 236 242 250 247 242 231 217 212 209 206 203
219 212 207 232 225 234 234 246 255 253 254 265 270 277 281 276 275 267 263 265 263 260 259 255 250 253 247 247 252 254 248 244 244 242 239 238 239 240 241 240 234 228 225 222
217 215 204 170 171 187 227 250 267 249 253 277 274 277 274 277 279 275 270 267 265 265 265 259 257 253 248 247 249 248 252 255 251 248 244 242 241 242 241 241 241 240 238 234
225 227 225 233 228 253 266 253 260 259 256 282 283 270 268 273 280 277 275 280 280 275 266 263 258 253 249 248 247 247 247 245 246 250 251 249 247 245 243 243 242 240 239 240
228 232 243 255 258 260 256 258 260 259 272 279 279 276 276 277 281 285 283 277 271 266 261 258 260 260 256 250 247 245 244 244 244 243 245 247 248 248 248 246 244 243 240 240
231 235 242 249 252 253 254 257 263 268 269 274 280 277 279 281 280 280 276 274 271 268 264 263 262 262 262 255 249 248 247 245 244 244 245 245 247 246 245 245 246 246 246 248
224 231 239 250 254 253 258 259 261 268 275 279 284 283 281 279 275 271 273 278 277 273 269 262 262 262 255 251 247 248 246 246 249 248 246 245 247 249 250 250 250 250 251 251
239 242 243 249 251 251 262 269 270 270 273 280 283 279 277 279 276 276 277 277 277 276 272 268 260 256 254 249 248 247 248 248 246 249 250 249 249 249 250 252 253 254 254 253
232 235 244 248 251 257 266 271 273 277 280 280 278 273 275 273 277 278 277 276 276 278 293 275 265 260 259 258 257 257 253 252 253 250 249 251 252 252 253 254 255 256 257 257
247 242 246 253 259 264 269 273 275 275 273 271 268 268 270 271 270 267 266 267 272 278 269 260 258 258 256 254 252 253 255 255 252 252 251 251 251 253 262 257 255 256 257 257
259 260 259 262 266 269 270 271 265 265 266 265 268 267 263 259 261 264 264 266 270 268 269 267 263 263 262 260 256 253 252 253 254 253 252 253 254 254 254 262 265 261 259 260
279 270 263 266 268 266 260 254 254 258 263 267 260 259 263 268 271 272 274 275 271 266 265 263 261 260 260 260 261 259 256 254 252 252 254 256 255 255 258 259 260 264 264 263
294 285 279 267 256 257 254 254 260 263 264 264 264 264 267 267 268 269 266 267 271 278 277 275 274 273 271 269 267 265 262 257 256 257 258 258 260 263 265 267 267 264 263 262
305 295 278 262 258 265 267 265 265 266 266 263 260 261 262 261 259 255 250 252 256 265 272 274 274 274 276 274 272 269 266 265 262 261 260 260 259 261 263 264 266 266 267 266
314 308 300 282 275 276 275 272 273 272 270 268 264 260 257 255 251 255 256 261 262 265 270 273 273 278 278 275 271 266 266 265 264 263 263 262 262 262 263 264 265 267 267 267
326 316 317 319 312 299 288 279 272 267 265 264 259 258 256 255 256 254 252 251 251 254 260 262 268 273 275 276 276 277 277 276 275 275 274 272 270 267 266 266 266 266 268 268
326 326 320 317 311 303 301 294 284 275 269 264 263 260 260 253 248 244 242 238 235 237 254 271 282 279 280 283 285 285 283 279 278 278 278 277 277 277 274 267 260 256 255 253
Wind_Speed_850mb
8 3 5 7 9 17 18 11 12 8 13 22 20 15 35 24 20 16 13 19 17 17 17 15 15 14 12 12 14 17 18 15 14 13 13 10 10 10 12 15 19 21 20 16
9 6 2 12 21 21 16 10 21 21 41 31 32 17 16 15 20 20 12 14 14 13 14 12 12 12 11 10 10 11 11 9 11 13 14 13 10 13 14 14 13 16 16 16
10 3 11 14 15 26 10 10 20 13 24 9 7 17 19 13 18 21 16 13 14 13 12 9 8 7 8 9 10 10 8 1 8 10 13 13 14 14 9 13 14 15 16 15
7 9 6 10 9 12 15 11 32 21 19 19 17 19 32 35 33 34 27 19 14 11 11 9 4 5 6 9 11 12 9 6 8 8 8 7 10 9 9 12 14 12 11 9
3 6 14 3 10 17 15 16 40 44 41 32 35 29 40 15 18 16 25 19 15 10 10 9 5 2 4 7 10 10 8 8 7 6 5 4 7 4 2 6 9 12 10 8
5 6 11 9 6 18 12 10 19 49 31 21 12 1 9 5 3 3 9 19 17 13 10 9 7 4 1 3 7 7 3 4 5 5 5 9 12 12 11 12 9 7 9 9
5 6 18 14 23 24 10 12 17 36 30 27 14 25 2 5 6 5 4 8 17 17 10 10 8 8 5 3 1 3 0 2 1 2 5 7 11 12 12 12 11 8 9 11
7 3 18 33 19 17 8 9 16 23 28 33 30 23 20 16 15 13 12 10 8 14 17 16 13 11 10 8 8 5 3 5 6 3 4 5 8 10 10 13 13 14 17 16
22 16 4 72 11 41 14 17 19 19 16 18 20 25 28 29 25 23 22 20 19 15 14 22 22 18 15 14 14 13 10 6 7 8 7 4 6 9 11 10 12 15 16 17
4 16 42 38 65 27 38 26 18 17 14 20 24 27 36 34 29 30 28 28 25 27 28 26 22 25 20 26 22 21 18 16 13 12 11 10 9 9 11 13 15 18 18 19
12 22 20 40 58 59 59 54 39 37 35 35 40 41 48 51 45 38 34 33 35 37 35 33 35 31 28 31 31 28 27 27 24 20 17 16 16 17 16 18 19 20 21 21
16 29 26 17 25 34 52 51 43 51 49 36 40 43 46 52 42 40 41 41 45 48 47 42 40 42 38 39 38 36 38 36 32 30 27 24 23 24 25 25 25 25 25 24
20 22 30 23 19 18 19 24 24 29 25 31 33 37 44 53 48 45 45 44 50 53 57 55 50 48 46 49 50 48 44 42 41 40 39 36 33 31 31 30 32 32 32 31
69 48 32 43 29 22 30 28 24 35 37 40 32 36 41 45 50 53 57 52 49 49 53 55 58 60 51 56 63 60 56 51 50 49 48 46 44 41 39 40 40 39 38 38
90 74 64 58 51 56 49 43 41 46 49 55 46 45 54 59 58 60 58 51 55 60 61 59 63 65 59 65 71 73 70 65 61 59 57 55 53 52 52 51 50 48 50 53
69 78 72 70 59 52 59 58 63 62 55 49 49 45 49 56 66 72 68 65 63 68 67 68 70 61 54 61 68 75 78 77 71 68 67 66 66 66 64 64 63 62 61 57
65 71 69 82 84 81 77 67 65 63 60 57 55 56 57 63 71 75 74 69 69 65 61 66 69 62 61 59 60 67 77 77 79 80 77 74 76 76 75 75 72 71 68 64
87 82 81 85 83 70 67 66 65 62 58 59 60 62 70 72 72 67 61 58 64 66 61 56 58 63 65 66 64 61 68 78 82 85 84 86 85 83 84 82 80 79 74 72
85 85 87 88 91 86 76 77 73 64 66 68 64 68 66 67 63 55 50 54 55 55 43 45 54 58 59 57 60 65 68 69 73 77 83 86 87 88 90 90 88 86 83 81
92 95 99 96 91 85 86 80 74 70 61 56 57 57 56 49 45 47 47 48 47 43 40 40 47 54 60 63 66 69 68 68 72 75 74 78 80 73 81 90 93 94 92 90
75 80 88 88 88 83 75 69 59 53 51 50 50 48 47 46 45 47 49 48 37 43 44 43 47 48 48 53 57 65 66 64 60 64 71 78 79 80 80 85 88 89 88 88
34 44 53 57 59 59 53 44 44 45 45 47 45 48 51 47 46 45 44 44 37 44 42 39 39 39 38 41 47 53 59 61 58 56 56 61 67 73 75 77 83 80 75 76
27 28 27 26 34 40 42 40 42 44 43 42 45 47 43 43 44 41 37 35 29 30 30 34 35 35 34 35 38 40 45 48 53 57 58 59 62 65 66 65 62 63 67 72
26 23 23 21 25 31 34 37 41 43 43 42 40 40 40 39 37 34 30 29 29 29 31 33 34 35 34 33 34 37 40 42 44 46 48 50 53 56 59 59 59 60 60 59
29 23 18 17 20 25 28 32 34 36 35 36 36 33 33 31 29 28 27 27 28 29 29 29 27 26 25 26 27 28 29 32 35 39 42 45 47 49 50 50 50 50 50 49
26 25 21 18 17 20 23 24 29 30 29 30 30 30 30 29 29 28 27 25 23 22 22 24 22 23 22 22 24 25 26 29 31 34 37 40 42 42 42 41 40 40 38 35
21 23 22 20 21 23 23 23 22 24 26 26 25 28 28 24 24 23 23 23 21 16 15 15 14 16 17 18 20 21 23 25 26 27 28 30 31 33 35 37 36 34 34 35
Wind_Direction_850mb
263 281 287 240 188 171 186 208 182 265 229 273 278 268 299 308 302 291 266 255 247 260 274 300 317 326 341 357 9 13 13 15 17 32 45 65 82 106 130 150 159 172 182 194
293 353 264 261 225 197 194 222 273 275 283 262 278 269 262 284 283 279 268 269 254 255 262 283 307 329 343 341 4 10 14 16 32 51 59 59 91 102 127 141 145 154 172 168
272 326 307 298 220 191 167 191 201 193 226 247 266 251 268 268 274 277 265 248 258 259 258 272 304 334 351 358 24 34 29 41 52 82 67 63 75 90 128 138 145 156 162 182
258 351 344 235 149 198 186 220 216 265 248 230 246 278 282 273 268 274 270 252 240 251 249 256 288 339 2 19 35 40 54 113 117 96 82 58 73 92 113 132 149 159 159 173
151 213 294 195 188 160 163 272 207 223 249 256 272 293 297 264 248 270 255 244 229 229 240 250 261 298 12 38 48 52 85 97 85 81 82 113 162 174 126 142 136 132 142 129
88 167 220 243 168 179 152 297 188 192 230 230 222 244 257 177 224 224 218 230 226 226 227 231 263 270 297 37 69 78 65 89 64 62 91 121 128 139 127 133 133 142 175 147
165 245 285 236 155 155 91 238 178 190 200 183 193 231 193 205 235 244 200 207 230 235 228 224 236 263 261 259 57 96 44 298 308 101 122 121 119 121 138 128 115 134 165 154
95 115 274 158 126 175 207 156 172 187 198 203 226 255 252 252 245 253 248 226 233 244 242 238 236 234 246 245 237 229 238 285 293 267 165 139 132 136 141 141 154 164 169 171
192 209 232 180 196 202 191 178 179 196 208 227 242 259 267 262 253 252 253 250 243 244 242 250 249 241 239 232 245 242 237 251 276 273 263 214 173 160 157 169 180 178 178 176
98 234 232 216 220 211 215 192 188 199 224 244 260 273 276 272 264 256 256 258 256 249 250 245 250 251 234 235 237 241 242 240 242 258 260 254 240 211 190 187 198 191 183 183
261 272 263 251 232 232 232 234 238 242 250 266 272 276 277 274 265 265 265 261 258 258 254 254 250 245 243 246 245 241 239 240 240 236 242 250 247 242 231 217 212 209 206 203
219 212 207 232 225 234 234 246 255 253 254 265 270 277 281 276 275 267 263 265 263 260 259 255 250 253 247 247 252 254 248 244 244 242 239 238 239 240 241 240 234 228 225 222
217 215 204 170 171 187 227 250 267 249 253 277 274 277 274 277 279 275 270 267 265 265 265 259 257 253 248 247 249 248 252 255 251 248 244 242 241 242 241 241 241 240 238 234
225 227 225 233 228 253 266 253 260 259 256 282 283 270 268 273 280 277 275 280 280 275 266 263 258 253 249 248 247 247 247 245 246 250 251 249 247 245 243 243 242 240 239 240
228 232 243 255 258 260 256 258 260 259 272 279 279 276 276 277 281 285 283 277 271 266 261 258 260 260 256 250 247 245 244 244 244 243 245 247 248 248 248 246 244 243 240 240
231 235 242 249 252 253 254 257 263 268 269 274 280 277 279 281 280 280 276 274 271 268 264 263 262 262 262 255 249 248 247 245 244 244 245 245 247 246 245 245 246 246 246 248
224 231 239 250 254 253 258 259 261 268 275 279 284 283 281 279 275 271 273 278 277 273 269 262 262 262 255 251 247 248 246 246 249 248 246 245 247 249 250 250 250 250 251 251
239 242 243 249 251 251 262 269 270 270 273 280 283 279 277 279 276 276 277 277 277 276 272 268 260 256 254 249 248 247 248 248 246 249 250 249 249 249 250 252 253 254 254 253
232 235 244 248 251 257 266 271 273 277 280 280 278 273 275 273 277 278 277 276 276 278 293 275 265 260 259 258 257 257 253 252 253 250 249 251 252 252 253 254 255 256 257 257
247 242 246 253 259 264 269 273 275 275 273 271 268 268 270 271 270 267 266 267 272 278 269 260 258 258 256 254 252 253 255 255 252 252 251 251 251 253 262 257 255 256 257 257
259 260 259 262 266 269 270 271 265 265 266 265 268 267 263 259 261 264 264 266 270 268 269 267 263 263 262 260 256 253 252 253 254 253 252 253 254 254 254 262 265 261 259 260
279 270 263 266 268 266 260 254 254 258 263 267 260 259 263 268 271 272 274 275 271 266 265 263 261 260 260 260 261 259 256 254 252 252 254 256 255 255 258 259 260 264 264 263
294 285 279 267 256 257 254 254 260 263 264 264 264 264 267 267 268 269 266 267 271 278 277 275 274 273 271 269 267 265 262 257 256 257 258 258 260 263 265 267 267 264 263 262
305 295 278 262 258 265 267 265 265 266 266 263 260 261 262 261 259 255 250 252 256 265 272 274 274 274 276 274 272 269 266 265 262 261 260 260 259 261 263 264 266 266 267 266
314 308 300 282 275 276 275 272 273 272 270 268 264 260 257 255 251 255 256 261 262 265 270 273 273 278 278 275 271 266 266 265 264 263 263 262 262 262 263 264 265 267 267 267
326 316 317 319 312 299 288 279 272 267 265 264 259 258 256 255 256 254 252 251 251 254 260 262 268 273 275 276 276 277 277 276 275 275 274 272 270 267 266 266 266 266 268 268
326 326 320 317 311 303 301 294 284 275 269 264 263 260 260 253 248 244 242 238 235 237 254 271 282 279 280 283 285 285 283 279 278 278 278 277 277 277 274 267 260 256 255 253